Location: Hilton Head Island
(32.2163°N, 80.7526°W)
Time: 03:06:33
(UTC-04:00)

Explorer 7 - Pass Details

Date: 23 February 2026
Orbit: 430 x 542 km, 50.2° (Epoch: 7 March)

Event Time Altitude Azimuth Distance (km) Brightness Sun altitude
Rises 13:58:40 0° 280° (W) 2,397 10.3 43.8°
Reaches altitude 10° 14:02:21 10° 321° (NW) 1,547 9.1 43.4°
Maximum altitude 14:03:11 11° 335° (NNW) 1,511 8.9 43.3°
Drops below altitude 10° 14:04:02 10° 350° (N) 1,558 8.9 43.2°
Sets 14:07:48 0° 30° (NNE) 2,459 9.7 42.8°
